Regional Weather Roundup
Issued by NWS

Home | Current Version | Previous Version | Text Only | Print | Product List | Glossary On
Versions: 1 2 3 4 5 6 7 8 9 10 11 12 13 14 15 16 17 18 19 20 21 22 23 24 25 26 27
000
ASUS43 KDMX 170107
RWRIA

WEATHER ROUNDUP FOR IOWA
NATIONAL WEATHER SERVICE DES MOINES IA
800 PM CDT WED APR 16 2014

NOTE: "FAIR" INDICATES FEW OR NO CLOUDS BELOW 12,000 FEET WITH NO
SIGNIFICANT WEATHER AND/OR OBSTRUCTIONS TO VISIBILITY.

* - THESE STATIONS ARE NOT NWS STATIONS...THUS NOT UNDER NWS
QUALITY CONTROL.  THEY ALSO DO NOT REPORT WEATHER SUCH
AS PRECIPITATION OR FOG.

IAZ001>003-012>014-020>022-031>034-043>046-170200-
   NORTHWEST IOWA

CITY           SKY/WX    TMP DP  RH WIND       PRES   REMARKS
CARROLL *      CLOUDY    45  37  76 W23G30    29.79R
CHEROKEE *     CLOUDY    38  37  93 NW16G26   29.87R WCI  30
DENISON *      CLOUDY    41  37  87 NW17G31   29.84R
LE MARS *      CLOUDY    34  30  86 N18G28    29.94R WCI  23
ORANGE CITY *  CLOUDY    32  27  80 N21G31    29.91R WCI  20
SHELDON *      CLOUDY    32  30  93 N26G36    29.89R WCI  18
SIOUX CITY     CLOUDY    36  31  82 NW28G38   29.92R WCI  23
SPENCER        LGT RAIN  37  34  89 N21       29.83R WCI  26
STORM LAKE *   LGT RAIN  39  39 100 N22G28    29.83R WCI  29
$$

IAZ055>058-069>071-079>083-090>094-170200-
   SOUTHWEST IOWA

CITY           SKY/WX    TMP DP  RH WIND       PRES   REMARKS
ATLANTIC *     CLOUDY    43  34  70 NW22G30   29.87R
AUDUBON *      MOCLDY    43  34  70 W13G18    29.85R
CLARINDA *     MOCLDY    48  34  57 NW17G24   29.91R
COUNCIL BLFS * CLOUDY    39  34  81 NW21G29   29.90R WCI  29
CRESTON *      CLOUDY    48  34  57 NW22G30   29.86R
HARLAN  *      CLOUDY    41  36  81 NW23      29.91R
LAMONI         CLOUDY    59  32  36 S20G31    29.81R
RED OAK *      MOCLDY    43  34  70 NW22G29   29.89R
SHENANDOAH *   MOCLDY    45  34  65 NW20      29.92R
$$

IAZ047>049-059>061-072>074-084-170200-
   CENTRAL IOWA

CITY           SKY/WX    TMP DP  RH WIND       PRES   REMARKS
AMES           CLOUDY    59  33  37 S15       29.75R
ANKENY *       CLOUDY    61  32  33 S16G24    29.77R
CHARITON *     PTCLDY    57  36  44 S16       29.82R
DES MOINES     MOCLDY    62  32  32 S22G28    29.78R
GRINNELL*      CLOUDY    55  33  43 SE16      29.82F
KNOXVILLE *    PTCLDY    59  34  38 S16G29    29.81S
MARSHALLTOWN   CLOUDY    56  34  43 S21       29.78F
NEWTON *       MOCLDY    55  34  44 S17       29.81S
PELLA *        MOCLDY    57  34  41 S17       29.83F
PERRY *        CLOUDY    49  34  56 W21       29.81R
$$

IAZ004>006-015-016-023>025-035-036-170200-
   NORTH CENTRAL IOWA

CITY           SKY/WX    TMP DP  RH WIND       PRES   REMARKS
ALGONA *       DRIZZLE   41  39  93 N16G23    29.79R
CLARION *      CLOUDY    54  39  58 SW12G21   29.74R
ESTHERVILLE    RAIN      36  36 100 N18       29.81R FOG     WCI  26
FORT DODGE *   CLOUDY    46  37  71 N8G16     29.77R
MASON CITY     CLOUDY    52  37  56 S15       29.75R
FOREST CITY *  LGT RAIN  52  37  58 W8        29.75R
IOWA FALLS *   CLOUDY    55  35  45 S21G29    29.76R
$$

IAZ007>011-017>019-026>030-037>042-050>054-066-170200-
   NORTHEAST IOWA

CITY           SKY/WX    TMP DP  RH WIND       PRES   REMARKS
CEDAR RAPIDS   CLOUDY    53  28  38 SE20G28   29.89S
CHARLES CITY * CLOUDY    52  34  50 SE17G25   29.79S
CLINTON *      CLOUDY    50  27  40 S13       30.05R
DECORAH *      CLOUDY    50  30  46 SE15G25   29.85S
DUBUQUE        CLOUDY    49  29  46 S21G26    29.97R
MONTICELLO *   CLOUDY    52  30  43 SE18G28   29.94S
OELWEIN *      CLOUDY   N/A N/A N/A SE20G29   29.85S
WATERLOO       CLOUDY    54  31  41 SE20G30   29.81S
$$

IAZ064-065-067-068-078-170200-
   EAST CENTRAL IOWA

CITY           SKY/WX    TMP DP  RH WIND       PRES   REMARKS
DAVENPORT      CLOUDY    51  26  37 S20G35    30.01R
IOWA CITY      CLOUDY    54  30  40 SE14G26   29.94S
MT. PLEASANT * CLOUDY    54  28  36 SE17      29.96R
MUSCATINE *    CLOUDY    54  28  37 SE16G24   29.97S
QUAD CITIES    CLOUDY    51  26  37 S9        30.02R
$$

IAZ062-063-075>077-085>089-095>099-170200-
   SOUTHEAST IOWA

CITY           SKY/WX    TMP DP  RH WIND       PRES   REMARKS
BURLINGTON     MOCLDY    53  28  38 S14       29.98R
FAIRFIELD *    CLOUDY    57  28  33 S16G24    29.91S
FORT MADISON * MOCLDY    54  30  40 SE14      29.98R
KEOKUK *       PTCLDY    55  28  35 SE10      29.96S
OSKALOOSA *    MOCLDY    55  33  44 S16       29.87S
CENTERVILLE *    N/A     55  32  41 SE16      29.88R
OTTUMWA        MOCLDY    57  30  35 S17G29    29.87S
WASHINGTON *   CLOUDY    54  30  40 SE16G22   29.93R
$$

ABBREVIATIONS USED IN REMARKS
   TC - TEMPERATURES IN CELSIUS
  WCI - WIND CHILL INDEX
   HX - HEAT INDEX
  VSB - VISIBILITY
$$




USA.gov is the U.S. government's official web portal to all federal, state and local government web resources and services.